[[{"header":{"parameterUnit":"m.s-1","parameterCategory":2,"la1":30.2991,"la2":30.254,"lo1":-89.0895,"lo2":-89.0444,"dx":0.0017,"dy":0.0017,"nx":28,"ny":28,"refTime":"2022-12-29T15:00:00:Z","depth":"0","parameterNumber":2,"parameterNumberName":"U-component_of_CURRENTS"},"data":[0,0,0,0,0,0,0,0,0,0,0,0,0,0,0,0,0,0,0,0,0,0,0,0,0,0,0,0,0,0,0,0,0,0,0,0,0,0,0,0,0,0,0,0,0,0,0,0,0,0,0,0,0,0,0,0,0,0,0.1551,0.1551,0,0.1509,0.1508,0.1508,0.1451,0.145,0.145,0.1449,0.1454,0.1455,0.1456,0,0,0,0,0,0,0,0,0,0,0,0,0,0.1529,0.153,0.1551,0.1551,0.1551,0.1509,0.1508,0.1507,0.1451,0.145,0.1449,0.1449,0.1454,0.1455,0.1456,0,0,0,0,0,0,0,0,0,0,0,0,0,0.1516,0.153,0.1551,0.152,0.1516,0.1509,0.1508,0.1507,0.1451,0.145,0.1449,0.1448,0.1454,0.1455,0.1456,0.1484,0,0,0.146,0.146,0,0,0,0,0,0,0,0,0.1516,0.1516,0.1524,0.1522,0.1518,0.1487,0.1502,0.1503,0.1452,0.1473,0.1449,0.1448,0.1472,0.1472,0.1461,0.1484,0.1485,0.146,0.146,0.1461,0.1461,0,0,0,0,0,0,0,0.1517,0.1517,0.1532,0.1524,0.1521,0.1489,0.1486,0.1501,0.1478,0.1471,0.1468,0.1468,0.147,0.146,0.1461,0.1485,0.146,0.1461,0.1461,0.1462,0.153,0.1531,0,0,0,0,0,0,0.1532,0.1519,0.1533,0.1531,0.1518,0.1491,0.1487,0.1496,0.1476,0.1473,0.1469,0.1465,0.1459,0.146,0.1461,0.1502,0.1461,0.1462,0.1463,0.1529,0.153,0.1531,0,0,0,0,0,0,0.1532,0.1534,0.1535,0.1525,0.1523,0.1493,0.1502,0.1495,0.1489,0.1474,0.1471,0.1469,0.1458,0.146,0.147,0.1501,0.1463,0.1464,0.1527,0.1529,0.1531,0.1578,0,0,0,0,0,0,0.1532,0.1535,0.1546,0.1527,0.1525,0.1539,0.1503,0.1495,0.1491,0.1486,0.1475,0.1473,0.1457,0.1468,0.1471,0.1502,0.1465,0.1526,0.1528,0.153,0.1575,0.1581,0.1586,0,0,0,0,0,0.1531,0.1542,0.1547,0.1549,0.1541,0.154,0.1536,0.1508,0.1493,0.1497,0.1479,0.1474,0.1483,0.1469,0.1473,0.1505,0.1525,0.1527,0.153,0.1573,0.158,0.1586,0,0,0,0,0,0,0.152,0.1537,0.1542,0.1553,0.1556,0.1532,0.153,0.1519,0.1508,0.1503,0.1484,0.1482,0.1504,0.15,0.1485,0.1531,0.1506,0.1509,0.1537,0.1544,0.155,0.1554,0.1465,0,0,0,0,0,0.1532,0.1551,0.1558,0.1566,0.1574,0.156,0.1556,0.1543,0.1531,0.1524,0.1516,0.1512,0.1518,0.1525,0.1527,0.1556,0.156,0.158,0.1586,0.1591,0.1597,0.1622,0.163,0.1539,0.1539,0.1539,0,0,0.1524,0.1539,0.1546,0.1567,0.1565,0.1577,0.1553,0.1556,0.1561,0.1531,0.1536,0.1534,0.1529,0.155,0.1562,0.155,0.1622,0.1594,0.1598,0.1601,0.1625,0.1634,0.1642,0.1541,0.1541,0.154,0,0,0.1517,0.1542,0.1558,0.1572,0.1589,0.1589,0.1598,0.1593,0.1589,0.16,0.1579,0.1593,0.16,0.1602,0.1604,0.1647,0.1649,0.1656,0.1692,0.1716,0.1724,0.1731,0.176,0.1769,0.1661,0.1661,0.1661,0,0.1508,0.1534,0.1558,0.1579,0.1589,0.1601,0.1613,0.162,0.1615,0.1622,0.1609,0.1625,0.1625,0.1652,0.1663,0.1662,0.1675,0.1665,0.1724,0.173,0.1736,0.1765,0.1774,0.1663,0.1663,0.1663,0.1662,0,0.1515,0.1539,0.1549,0.1589,0.1605,0.1619,0.1642,0.166,0.1665,0.1668,0.1697,0.1692,0.17,0.1713,0.17,0.175,0.1746,0.1726,0.1706,0.1749,0.1776,0.1784,0.1667,0.1666,0.1665,0.1665,0,0,0.1485,0.1543,0.1547,0.1567,0.1615,0.1622,0.1659,0.169,0.1706,0.1726,0.1745,0.1769,0.1771,0.1774,0.1772,0.1799,0.1859,0.1787,0.1787,0.1816,0.1922,0.1925,0.1935,0.1849,0.185,0.1852,0.1928,0,0.1483,0.1516,0.1551,0.158,0.16,0.164,0.1668,0.1701,0.1725,0.1752,0.1779,0.1795,0.1794,0.18,0.1832,0.1845,0.1882,0.184,0.1877,0.1878,0.1875,0.1945,0.1922,0.1989,0.1936,0.1938,0.1939,0,0.1482,0.1507,0.1531,0.1581,0.1594,0.1614,0.1665,0.1693,0.175,0.177,0.1808,0.1823,0.1875,0.1857,0.1928,0.1901,0.1923,0.1936,0.1938,0.1929,0.1898,0.1936,0.2006,0.198,0.1952,0.1951,0.195,0,0.1444,0.1494,0.151,0.1527,0.1586,0.1604,0.1637,0.1693,0.1717,0.1781,0.1805,0.1863,0.1891,0.1932,0.1973,0.1953,0.2046,0.2014,0.2042,0.2042,0.2024,0.202,0.2072,0.207,0.207,0.207,0.207,0,0.1433,0.1447,0.1491,0.1501,0.1524,0.1574,0.1605,0.1649,0.1706,0.1742,0.1807,0.1842,0.1912,0.197,0.1997,0.2061,0.207,0.2071,0.207,0.2042,0.2038,0.2014,0.1984,0.2073,0.2072,0.2072,0.2071,0,0.1392,0.1423,0.1443,0.1492,0.1506,0.152,0.1581,0.1604,0.167,0.1719,0.1742,0.1841,0.1933,0.2004,0.208,0.2093,0.2092,0.2159,0.2128,0.2123,0.2109,0.2083,0.1987,0.1925,0.2205,0.2205,0.2206,0,0.1377,0.138,0.1419,0.1426,0.1447,0.1478,0.1501,0.1573,0.1602,0.1712,0.1732,0.1848,0.1925,0.2059,0.2122,0.2201,0.2122,0.2207,0.2162,0.2131,0.21,0.1947,0.1889,0.2163,0.2163,0.2163,0.2163,0,0.1343,0.1351,0.1366,0.1379,0.1396,0.1418,0.1459,0.1475,0.1566,0.1625,0.1709,0.1781,0.1946,0.2039,0.2161,0.2194,0.2106,0.2211,0.2188,0.2091,0.1918,0.185,0.2091,0.2164,0.2164,0.2164,0.2164,0.2164,0.1312,0.1308,0.1321,0.1328,0.1343,0.1349,0.1352,0.1408,0.1455,0.1537,0.1642,0.1752,0.1952,0.2129,0.2142,0.2198,0.2107,0.2177,0.2156,0.2008,0.1917,0.2167,0.2228,0.2228,0.2228,0.2228,0.2228,0,0.1269,0.1268,0.1271,0.1274,0.1263,0.1292,0.1315,0.1315,0.1351,0.1484,0.157,0.1789,0.1923,0.2065,0.2206,0.2164,0.2016,0.2124,0.1921,0.1873,0.2134,0.2106,0.2131,0.2131,0.2131,0.2131,0.2131,0.2131,0.1249,0.1229,0.1226,0.119,0.1189,0.1163,0.1161,0.1179,0.1261,0.1387,0.1526,0.1654,0.1922,0.2129,0.217,0.2126,0.1943,0.1861,0.1806,0.2042,0.2044,0.2047,0.2015,0.202,0.202,0.1468,0.1465,0.1462]},{"header":{"parameterUnit":"m.s-1","parameterCategory":2,"la1":30.2991,"la2":30.254,"lo1":-89.0895,"lo2":-89.0444,"dx":0.0017,"dy":0.0017,"nx":28,"ny":28,"refTime":"2022-12-29T15:00:00:Z","depth":"0","parameterNumber":3,"parameterNumberName":"V-component_of_CURRENTS"},"data":[0,0,0,0,0,0,0,0,0,0,0,0,0,0,0,0,0,0,0,0,0,0,0,0,0,0,0,0,0,0,0,0,0,0,0,0,0,0,0,0,0,0,0,0,0,0,0,0,0,0,0,0,0,0,0,0,0,0,0.0076,0.0076,0,0.0029,0.0029,0.0028,0.0001,0.0001,0.0001,0.0001,-0.0096,-0.0099,-0.0101,0,0,0,0,0,0,0,0,0,0,0,0,0,0.0128,0.0127,0.0076,0.0076,0.0075,0.0029,0.0029,0.0028,0.0001,0.0001,0.0001,0.0001,-0.0095,-0.0098,-0.0101,0,0,0,0,0,0,0,0,0,0,0,0,0,0.0095,0.0127,0.0076,0.0057,0.0054,0.003,0.0029,0.0028,0.0001,0.0001,0.0001,0.0001,-0.0094,-0.0098,-0.0102,-0.0124,0,0,-0.0113,-0.0115,0,0,0,0,0,0,0,0,0.0097,0.0093,0.006,0.0058,0.0055,0.0021,0.0011,-0.0025,0.0001,0.002,0.0001,0.0001,-0.0061,-0.0067,-0.0076,-0.0129,-0.0133,-0.0114,-0.0116,-0.0118,-0.0119,0,0,0,0,0,0,0,0.0099,0.0095,0.0057,0.006,0.0057,0.0045,0.0041,0.0004,-0.0021,0.0019,0.0017,0.0013,-0.0063,-0.0073,-0.0079,-0.0134,-0.0114,-0.0117,-0.0119,-0.0121,-0.0186,-0.0185,0,0,0,0,0,0,0.0107,0.0097,0.0058,0.0056,0.0077,0.0045,0.0039,0.0032,-0.0019,-0.0027,0.0013,0.0012,-0.0066,-0.0075,-0.0083,-0.0093,-0.0118,-0.0121,-0.0123,-0.0186,-0.0186,-0.0185,0,0,0,0,0,0,0.0108,0.0104,0.006,0.0076,0.007,0.0044,0.0036,0.0031,0.0022,-0.0023,-0.0032,0.001,-0.0067,-0.0077,-0.0105,-0.0098,-0.0123,-0.0126,-0.0187,-0.0186,-0.0185,-0.0126,0,0,0,0,0,0,0.011,0.0105,0.0104,0.0076,0.0069,0.0051,0.0036,0.003,0.002,0.0018,-0.0029,-0.0038,-0.0067,-0.0099,-0.0109,-0.0103,-0.0129,-0.0188,-0.0187,-0.0186,-0.0129,-0.0123,-0.0119,0,0,0,0,0,0.0112,0.0114,0.0104,0.0099,0.0068,0.0051,0.0046,0.0027,0.002,0.0019,-0.0008,-0.0036,-0.0099,-0.0102,-0.0114,-0.0109,-0.0188,-0.0187,-0.0186,-0.0131,-0.0125,-0.0119,0,0,0,0,0,0,0.0138,0.0111,0.0099,0.0093,0.0075,0.0047,0.0044,0.0031,0.0008,0.0007,-0.0035,-0.0046,-0.0067,-0.0095,-0.0097,-0.0123,-0.0146,-0.0147,-0.0101,-0.0095,-0.009,-0.0079,-0.0133,0,0,0,0,0,0.0143,0.0138,0.0109,0.0106,0.0096,0.007,0.0061,0.005,0.0026,0.0017,-0.0015,-0.0046,-0.0071,-0.0088,-0.0117,-0.0137,-0.0153,-0.0139,-0.0134,-0.0129,-0.0127,-0.0138,-0.0133,-0.0181,-0.0181,-0.0181,0,0,0.0153,0.0138,0.0135,0.0111,0.0094,0.009,0.0065,0.0056,0.0056,0.0008,-0.0004,-0.0033,-0.0072,-0.0088,-0.01,-0.0112,-0.0122,-0.0128,-0.0124,-0.0124,-0.0136,-0.0131,-0.0127,-0.018,-0.018,-0.018,0,0,0.0175,0.0156,0.0158,0.0145,0.0125,0.0109,0.0108,0.0081,0.0071,0.0055,0.0026,0.0005,-0.004,-0.0061,-0.0079,-0.0065,-0.0095,-0.0074,-0.0042,-0.0052,-0.0048,-0.0045,-0.0049,-0.0046,-0.0071,-0.007,-0.007,0,0.019,0.0186,0.0158,0.0158,0.0154,0.012,0.0126,0.011,0.0081,0.0075,0.006,0.0011,-0.0025,-0.004,-0.0033,-0.0054,-0.0062,-0.0061,-0.0045,-0.0042,-0.004,-0.0045,-0.0043,-0.0067,-0.0068,-0.0068,-0.0068,0,0.0211,0.0209,0.021,0.0199,0.0191,0.0191,0.0166,0.0157,0.014,0.0124,0.0105,0.0062,0.0034,0.0022,-0.0005,-0.0005,-0.0016,-0.0036,-0.0058,-0.0031,-0.0038,-0.0037,-0.0063,-0.0064,-0.0065,-0.0066,0,0,0.0241,0.0228,0.0229,0.0233,0.0214,0.0211,0.0209,0.0196,0.02,0.0169,0.0171,0.0127,0.0104,0.0083,0.005,0.0038,0.0046,0.0012,0.001,0.0012,0.0032,0.0021,0.002,0.0031,0.0031,0.0032,0.0025,0,0.0266,0.028,0.0266,0.0283,0.0286,0.0262,0.0266,0.0253,0.0233,0.0226,0.0185,0.0171,0.0128,0.0119,0.0101,0.0057,0.005,0.005,0.0002,0.0001,-0.001,0.0021,0.0048,0.0044,0.0025,0.0026,0.0026,0,0.0291,0.0297,0.0317,0.0326,0.0326,0.0332,0.0332,0.0333,0.0312,0.0296,0.0272,0.024,0.0212,0.0175,0.0122,0.0126,0.0086,0.0054,0.0052,0.002,-0.0009,0.0011,0.0046,-0.0027,0.0026,0.0026,0.0026,0,0.0324,0.0335,0.0354,0.0355,0.0357,0.0364,0.0367,0.0355,0.0365,0.0342,0.0348,0.0301,0.0287,0.023,0.0156,0.0143,0.0102,0.0074,0.0029,0.0028,0.003,0.0028,-0.0011,0.0045,0.0045,0.0045,0.0045,0,0.0353,0.0368,0.037,0.0379,0.0411,0.0402,0.0429,0.0421,0.0423,0.0448,0.039,0.04,0.0302,0.0263,0.0186,0.0115,0.0125,0.0043,0.0027,0.0052,0.0052,-0.0031,-0.008,0.0045,0.0045,0.0045,0.0045,0,0.038,0.0379,0.0404,0.0416,0.0424,0.0447,0.0475,0.0496,0.049,0.0521,0.0521,0.0481,0.043,0.0333,0.0243,0.0163,0.0051,0.0059,0.0096,0.0085,-0.0034,-0.008,-0.014,-0.0169,0.0012,0.0012,0.0011,0,0.0393,0.0407,0.0433,0.0455,0.046,0.0491,0.0519,0.0526,0.0552,0.0576,0.06,0.0564,0.055,0.0411,0.0263,0.0135,0.0057,0.0069,0.0042,-0.0028,-0.0092,-0.0124,-0.0147,0.0073,0.0073,0.0074,0.0074,0,0.0419,0.0427,0.0446,0.0491,0.0523,0.0564,0.0602,0.0635,0.0656,0.0687,0.0727,0.0726,0.06,0.0489,0.0303,0.02,0.0026,0.0069,-0.001,-0.005,-0.0081,-0.0119,0.0065,0.0076,0.0076,0.0076,0.0075,0.0075,0.044,0.0459,0.0486,0.0529,0.0572,0.0628,0.0667,0.0715,0.0773,0.0836,0.0833,0.0875,0.072,0.0471,0.0299,0.0041,0.0028,-0.0024,-0.0073,-0.0099,-0.0131,0.0058,0.005,0.0049,0.0049,0.0049,0.0048,0,0.0462,0.0484,0.0525,0.0576,0.0627,0.0645,0.0718,0.0763,0.0838,0.0933,0.0977,0.0995,0.0762,0.0524,0.0175,-0.0039,-0.0127,-0.0156,-0.0193,-0.0209,-0.0039,-0.0041,-0.0061,-0.0061,-0.0061,-0.0061,-0.0061,-0.006,0.0475,0.0509,0.0527,0.0609,0.0652,0.0722,0.0766,0.0839,0.0923,0.1065,0.1166,0.123,0.1146,0.0417,-0.004,-0.0163,-0.0301,-0.0346,-0.0421,-0.0306,-0.0298,-0.0289,-0.0302,-0.0377,-0.0377,-0.0549,-0.0551,-0.0552]}],[{"header":{"parameterUnit":"m.s-1","parameterCategory":2,"la1":30.2991,"la2":30.254,"lo1":-89.0895,"lo2":-89.0444,"dx":0.0017,"dy":0.0017,"nx":28,"ny":28,"refTime":"2022-12-29T15:00:00:Z","depth":"2","parameterNumber":2,"parameterNumberName":"U-component_of_CURRENTS"},"data":[0,0,0,0,0,0,0,0,0,0,0,0,0,0,0,0,0,0,0,0,0,0,0,0,0,0,0,0,0,0,0,0,0,0,0,0,0,0,0,0,0,0,0,0,0,0,0,0,0,0,0,0,0,0,0,0,0,0,0.1508,0.1508,0,0.1478,0.1477,0.1477,0.143,0.143,0.1429,0.1428,0.1442,0.1443,0.1444,0,0,0,0,0,0,0,0,0,0,0,0,0,0.1483,0.1484,0.1508,0.1508,0.1508,0.1478,0.1477,0.1477,0.143,0.143,0.1429,0.1428,0.1442,0.1443,0.1444,0,0,0,0,0,0,0,0,0,0,0,0,0,0.1475,0.1484,0.1508,0.1483,0.148,0.1478,0.1477,0.1476,0.1431,0.143,0.1429,0.1428,0.1442,0.1443,0.1444,0.1472,0,0,0.1449,0.1449,0,0,0,0,0,0,0,0,0.1476,0.1476,0.1487,0.1485,0.1482,0.1459,0.1473,0.1478,0.1431,0.1447,0.1428,0.1427,0.1454,0.1454,0.1447,0.1472,0.1473,0.1449,0.145,0.145,0.1451,0,0,0,0,0,0,0,0.1476,0.1477,0.1494,0.1487,0.1484,0.1458,0.1456,0.1473,0.1455,0.1446,0.1443,0.1443,0.1453,0.1446,0.1447,0.1473,0.1449,0.145,0.1451,0.1452,0.1521,0.1522,0,0,0,0,0,0,0.1488,0.1478,0.1495,0.1493,0.1479,0.146,0.1457,0.1465,0.1454,0.1452,0.1444,0.1441,0.1444,0.1446,0.1448,0.1489,0.145,0.1452,0.1452,0.152,0.1521,0.1522,0,0,0,0,0,0,0.1488,0.1491,0.1496,0.1486,0.1485,0.1462,0.1471,0.1465,0.1462,0.1453,0.1451,0.1447,0.1443,0.1446,0.1457,0.1489,0.1452,0.1454,0.1519,0.152,0.1522,0.1566,0,0,0,0,0,0,0.1488,0.1491,0.1502,0.1487,0.1486,0.1502,0.1472,0.1465,0.1465,0.1461,0.1455,0.1455,0.1442,0.1454,0.1458,0.149,0.1455,0.1517,0.1519,0.1521,0.1563,0.1569,0.1574,0,0,0,0,0,0.1487,0.1497,0.1503,0.1505,0.1502,0.1503,0.1501,0.1478,0.1466,0.1471,0.1457,0.1455,0.1469,0.1456,0.146,0.1494,0.1517,0.1519,0.1521,0.1561,0.1568,0.1574,0,0,0,0,0,0,0.1476,0.1494,0.1499,0.1511,0.1516,0.1496,0.1497,0.1489,0.1481,0.1478,0.1464,0.1463,0.1486,0.1484,0.147,0.1518,0.1495,0.1498,0.1524,0.1531,0.1536,0.154,0.1456,0,0,0,0,0,0.1488,0.1506,0.1514,0.1523,0.1532,0.1521,0.1519,0.151,0.1501,0.1496,0.1493,0.1492,0.15,0.1508,0.1513,0.1542,0.1547,0.1567,0.1573,0.1577,0.1583,0.1607,0.1615,0.1529,0.1529,0.1529,0,0,0.1481,0.1496,0.1502,0.1524,0.1524,0.1537,0.1517,0.1522,0.1529,0.1503,0.1512,0.1512,0.151,0.1533,0.1546,0.1536,0.1606,0.158,0.1584,0.1587,0.161,0.1619,0.1626,0.1531,0.1531,0.153,0,0,0.1475,0.15,0.1515,0.1529,0.1547,0.1549,0.1557,0.1557,0.1556,0.1569,0.1551,0.1566,0.1578,0.1582,0.1585,0.1627,0.163,0.1636,0.1671,0.1694,0.1701,0.1708,0.1735,0.1743,0.1641,0.1641,0.1642,0,0.1467,0.1492,0.1515,0.1536,0.1546,0.156,0.1572,0.1581,0.158,0.1589,0.1578,0.1599,0.1602,0.163,0.1641,0.1641,0.1653,0.1646,0.1701,0.1707,0.1713,0.1739,0.1748,0.1644,0.1644,0.1643,0.1643,0,0.1474,0.1498,0.1508,0.1546,0.1562,0.1577,0.1601,0.162,0.1628,0.1633,0.1663,0.1662,0.1674,0.1686,0.1677,0.1725,0.1721,0.1702,0.1685,0.1725,0.175,0.1758,0.1647,0.1646,0.1646,0.1645,0,0,0.1447,0.1502,0.1507,0.1525,0.1572,0.158,0.1617,0.1649,0.1666,0.1688,0.1709,0.1736,0.174,0.1745,0.1745,0.1771,0.1828,0.176,0.1761,0.1788,0.1888,0.1883,0.1892,0.1819,0.1821,0.1822,0.1893,0,0.1446,0.1478,0.1511,0.154,0.1559,0.1598,0.1627,0.166,0.1686,0.1714,0.1742,0.1761,0.1762,0.177,0.1801,0.1815,0.185,0.1811,0.1846,0.1847,0.1838,0.1901,0.1755,0.1806,0.1901,0.1902,0.1903,0,0.1445,0.147,0.1493,0.1542,0.1555,0.1574,0.1626,0.1654,0.1711,0.1732,0.1772,0.1787,0.1839,0.1824,0.1892,0.1867,0.1889,0.1901,0.1903,0.1889,0.1858,0.178,0.1817,0.1917,0.1915,0.1914,0.1914,0,0.1411,0.1459,0.1474,0.1491,0.1547,0.1566,0.16,0.1655,0.1681,0.1744,0.1769,0.1826,0.1855,0.1894,0.1935,0.1916,0.2004,0.1974,0.1995,0.1994,0.1872,0.1858,0.2028,0.2028,0.2028,0.2028,0.2028,0,0.14,0.1414,0.1457,0.1467,0.1491,0.154,0.1572,0.1616,0.1673,0.1709,0.1773,0.1807,0.1875,0.193,0.1956,0.2013,0.2025,0.2021,0.2019,0.1884,0.1872,0.1961,0.1952,0.203,0.203,0.2029,0.2029,0,0.1362,0.1391,0.1411,0.146,0.1474,0.149,0.1551,0.1574,0.1641,0.1689,0.1712,0.1808,0.1894,0.196,0.2032,0.2042,0.2087,0.21,0.1946,0.1926,0.2056,0.2049,0.2134,0.2135,0.2135,0.2136,0.2136,0,0.1346,0.135,0.1389,0.1397,0.1418,0.1451,0.1475,0.1546,0.1575,0.1683,0.1702,0.1812,0.1879,0.2001,0.2045,0.2112,0.2126,0.2005,0.1946,0.2081,0.2071,0.2063,0.2055,0.1801,0.1799,0.1797,0.1795,0,0.1314,0.1323,0.1338,0.1352,0.137,0.1393,0.1435,0.1451,0.154,0.1596,0.1676,0.1739,0.1878,0.1896,0.1997,0.2005,0.1984,0.1969,0.2149,0.1803,0.1775,0.1762,0.1764,0.1778,0.1779,0.1781,0.1782,0.1782,0.1284,0.1281,0.1295,0.1303,0.132,0.1327,0.1331,0.1383,0.1427,0.1495,0.1595,0.1658,0.1738,0.1827,0.1809,0.1812,0.1947,0.1867,0.187,0.1875,0.183,0.1805,0.1805,0.1807,0.1809,0.181,0.1811,0,0.1242,0.1243,0.1247,0.1251,0.1241,0.1272,0.1295,0.129,0.1321,0.1417,0.1486,0.1443,0.1493,0.1565,0.1556,0.1598,0.1537,0.1529,0.1431,0.1453,0.1471,0.14,0.1264,0.1261,0.1259,0.1257,0,0,0.1222,0.1204,0.1201,0.1168,0.117,0.1146,0.1144,0.1152,0.1204,0.1232,0.1271,0.1415,0.1527,0.136,0.1376,0.1313,0.1354,0.1263,0.1713,0.162,0.1634,0.1694,0.1616,0,0,0,0,0]},{"header":{"parameterUnit":"m.s-1","parameterCategory":2,"la1":30.2991,"la2":30.254,"lo1":-89.0895,"lo2":-89.0444,"dx":0.0017,"dy":0.0017,"nx":28,"ny":28,"refTime":"2022-12-29T15:00:00:Z","depth":"2","parameterNumber":3,"parameterNumberName":"V-component_of_CURRENTS"},"data":[0,0,0,0,0,0,0,0,0,0,0,0,0,0,0,0,0,0,0,0,0,0,0,0,0,0,0,0,0,0,0,0,0,0,0,0,0,0,0,0,0,0,0,0,0,0,0,0,0,0,0,0,0,0,0,0,0,0,-0.0063,-0.0064,0,-0.0094,-0.0094,-0.0094,-0.0109,-0.0109,-0.0109,-0.0109,-0.0196,-0.0199,-0.0201,0,0,0,0,0,0,0,0,0,0,0,0,0,-0.0021,-0.0022,-0.0063,-0.0064,-0.0064,-0.0094,-0.0094,-0.0095,-0.0109,-0.0109,-0.0109,-0.0109,-0.0196,-0.0198,-0.0201,0,0,0,0,0,0,0,0,0,0,0,0,0,-0.0045,-0.0022,-0.0063,-0.0074,-0.0076,-0.0093,-0.0094,-0.0095,-0.0109,-0.0109,-0.0109,-0.0109,-0.0195,-0.0198,-0.0202,-0.0226,0,0,-0.0213,-0.0214,0,0,0,0,0,0,0,0,-0.0043,-0.0046,-0.0072,-0.0074,-0.0075,-0.0097,-0.0111,-0.0141,-0.0109,-0.0097,-0.0109,-0.0109,-0.0168,-0.0174,-0.018,-0.023,-0.0234,-0.0213,-0.0215,-0.0217,-0.0218,0,0,0,0,0,0,0,-0.0042,-0.0045,-0.0076,-0.0073,-0.0074,-0.0079,-0.0082,-0.0117,-0.0135,-0.0098,-0.0099,-0.0102,-0.0169,-0.0176,-0.0182,-0.0235,-0.0213,-0.0216,-0.0218,-0.022,-0.0279,-0.0279,0,0,0,0,0,0,-0.0037,-0.0044,-0.0075,-0.0077,-0.0058,-0.0079,-0.0083,-0.0091,-0.0133,-0.0139,-0.0102,-0.0102,-0.017,-0.0178,-0.0185,-0.0194,-0.0217,-0.022,-0.0222,-0.028,-0.0279,-0.0279,0,0,0,0,0,0,-0.0036,-0.0039,-0.0074,-0.006,-0.0065,-0.008,-0.0088,-0.0091,-0.0096,-0.0135,-0.0141,-0.0102,-0.017,-0.018,-0.0205,-0.0199,-0.0221,-0.0225,-0.0281,-0.028,-0.0279,-0.0227,0,0,0,0,0,0,-0.0034,-0.0039,-0.004,-0.006,-0.0065,-0.008,-0.0089,-0.0092,-0.0097,-0.0098,-0.0138,-0.0146,-0.0171,-0.0199,-0.0208,-0.0204,-0.0228,-0.0281,-0.028,-0.0279,-0.0229,-0.0224,-0.022,0,0,0,0,0,-0.0033,-0.0031,-0.004,-0.0044,-0.0067,-0.008,-0.0083,-0.0094,-0.0097,-0.0098,-0.0118,-0.0144,-0.0199,-0.0201,-0.0212,-0.0209,-0.0282,-0.0281,-0.0279,-0.0231,-0.0225,-0.022,0,0,0,0,0,0,-0.0008,-0.0033,-0.0043,-0.0048,-0.0062,-0.0082,-0.0081,-0.0091,-0.0108,-0.0107,-0.0143,-0.0153,-0.0171,-0.0196,-0.0199,-0.0221,-0.0243,-0.0244,-0.0202,-0.0197,-0.0192,-0.0182,-0.0231,0,0,0,0,0,-0.0005,-0.001,-0.0035,-0.0036,-0.0045,-0.0064,-0.0069,-0.0076,-0.0094,-0.01,-0.0127,-0.0153,-0.0175,-0.019,-0.0216,-0.0234,-0.025,-0.0237,-0.0232,-0.0228,-0.0226,-0.0239,-0.0236,-0.0275,-0.0275,-0.0275,0,0,0.0008,-0.0007,-0.0009,-0.0031,-0.0044,-0.0047,-0.0067,-0.007,-0.0069,-0.0109,-0.0116,-0.0142,-0.0176,-0.019,-0.02,-0.0211,-0.0223,-0.0226,-0.0223,-0.0223,-0.0238,-0.0234,-0.0231,-0.0274,-0.0274,-0.0274,0,0,0.0031,0.0012,0.0013,0.0002,-0.0015,-0.0028,-0.0028,-0.0049,-0.0056,-0.0068,-0.0091,-0.0109,-0.0148,-0.0166,-0.0181,-0.0169,-0.0199,-0.0176,-0.0148,-0.0161,-0.0158,-0.0155,-0.0161,-0.0159,-0.0174,-0.0174,-0.0174,0,0.0048,0.0042,0.0014,0.0014,0.0012,-0.0018,-0.0011,-0.0025,-0.0047,-0.0051,-0.0062,-0.0103,-0.0135,-0.0148,-0.014,-0.0159,-0.0168,-0.0166,-0.0154,-0.0152,-0.0151,-0.0157,-0.0156,-0.0171,-0.0171,-0.0172,-0.0172,0,0.0069,0.0066,0.0068,0.0054,0.0048,0.005,0.0027,0.002,0.0007,-0.0006,-0.0022,-0.0059,-0.0082,-0.0094,-0.0116,-0.0118,-0.0127,-0.0146,-0.0167,-0.0144,-0.0152,-0.0152,-0.0167,-0.0168,-0.0169,-0.017,0,0,0.0103,0.0086,0.0087,0.009,0.0071,0.007,0.0068,0.0057,0.0062,0.0035,0.0039,-0.0,-0.0019,-0.0037,-0.0067,-0.0081,-0.0077,-0.0104,-0.0106,-0.0107,-0.0097,-0.0104,-0.0104,-0.0092,-0.0092,-0.0092,-0.0104,0,0.0128,0.0139,0.0124,0.0141,0.0143,0.0119,0.0124,0.0113,0.0095,0.0089,0.0051,0.0041,0.0002,-0.0004,-0.0024,-0.0066,-0.0076,-0.0072,-0.0122,-0.0124,-0.0131,-0.0104,-0.0096,-0.0106,-0.0104,-0.0104,-0.0104,0,0.0153,0.0157,0.0176,0.0182,0.0182,0.0189,0.019,0.0192,0.0171,0.0158,0.0136,0.0105,0.0078,0.0044,-0.0011,-0.0005,-0.0044,-0.0077,-0.0078,-0.0104,-0.013,-0.0132,-0.0106,-0.0104,-0.0104,-0.0104,-0.0104,0,0.0187,0.0196,0.0214,0.0215,0.0214,0.0223,0.0227,0.0215,0.0225,0.0202,0.0207,0.0162,0.0149,0.0091,0.0019,0.0007,-0.0038,-0.0065,-0.0106,-0.0107,-0.012,-0.0122,-0.0097,-0.0097,-0.0097,-0.0097,-0.0097,0,0.0216,0.0231,0.0232,0.024,0.0272,0.0262,0.029,0.0282,0.0284,0.0306,0.025,0.0256,0.0161,0.012,0.0045,-0.0025,-0.0018,-0.0094,-0.0109,-0.01,-0.0101,-0.0121,-0.0124,-0.0097,-0.0097,-0.0097,-0.0097,0,0.0244,0.0243,0.0266,0.0277,0.0286,0.031,0.0336,0.0356,0.0351,0.0378,0.0377,0.0334,0.0281,0.0185,0.0094,0.0019,-0.0056,-0.0083,-0.0063,-0.0076,-0.0122,-0.0122,-0.0128,-0.0128,-0.0128,-0.0128,-0.0128,0,0.0257,0.0271,0.0297,0.0318,0.0324,0.0355,0.0382,0.0388,0.041,0.0429,0.0449,0.0411,0.039,0.0252,0.0112,-0.0011,-0.0038,-0.009,-0.0117,-0.011,-0.0124,-0.0124,-0.0123,-0.011,-0.011,-0.011,-0.011,0,0.0283,0.0292,0.031,0.0355,0.0386,0.0424,0.046,0.0489,0.0507,0.0533,0.0566,0.0558,0.0434,0.0309,0.013,0.0036,-0.0073,-0.0094,-0.0089,-0.0104,-0.0095,-0.0109,-0.0108,-0.011,-0.011,-0.011,-0.011,-0.011,0.0303,0.0322,0.0349,0.0392,0.0434,0.0485,0.0521,0.0561,0.0612,0.0658,0.0652,0.0654,0.0506,0.0289,0.0117,-0.0065,-0.0056,-0.0126,-0.0125,-0.0125,-0.0121,-0.0113,-0.0131,-0.0131,-0.0131,-0.0131,-0.0131,0,0.0323,0.0346,0.0386,0.0435,0.0484,0.0504,0.0569,0.0601,0.0664,0.0725,0.0754,0.0629,0.0492,0.0322,0.0061,-0.01,-0.0125,-0.0161,-0.0152,-0.015,-0.0149,-0.0147,-0.0163,-0.0164,-0.0164,-0.0165,0,0,0.0333,0.0366,0.0384,0.0462,0.0507,0.0571,0.0612,0.066,0.0711,0.0759,0.0781,0.078,0.0578,0.0382,0.0155,0.0003,-0.0041,-0.0038,0.0006,0.0044,0.0047,-0.0111,-0.0103,0,0,0,0,0]}],[{"header":{"parameterUnit":"m.s-1","parameterCategory":2,"la1":30.2991,"la2":30.254,"lo1":-89.0895,"lo2":-89.0444,"dx":0.0017,"dy":0.0017,"nx":28,"ny":28,"refTime":"2022-12-29T15:00:00:Z","depth":"4","parameterNumber":2,"parameterNumberName":"U-component_of_CURRENTS"},"data":[0,0,0,0,0,0,0,0,0,0,0,0,0,0,0,0,0,0,0,0,0,0,0,0,0,0,0,0,0,0,0,0,0,0,0,0,0,0,0,0,0,0,0,0,0,0,0,0,0,0,0,0,0,0,0,0,0,0,0.0966,0.0967,0,0.1036,0.1037,0.1038,0.108,0.108,0.108,0.1081,0.1111,0.1111,0.1112,0,0,0,0,0,0,0,0,0,0,0,0,0,0.0884,0.0885,0.0966,0.0967,0.0968,0.1036,0.1037,0.1038,0.108,0.108,0.1081,0.1081,0.1111,0.1111,0.1112,0,0,0,0,0,0,0,0,0,0,0,0,0,0.0932,0.0885,0.0966,0.0998,0.1002,0.1036,0.1037,0.1038,0.108,0.108,0.1081,0.1081,0.111,0.1111,0.1112,0.1106,0,0,0.1114,0.1114,0,0,0,0,0,0,0,0,0.0929,0.0935,0.0992,0.0996,0.1,0.1051,0.1019,0.1059,0.1079,0.1048,0.1081,0.1081,0.1088,0.109,0.1101,0.1107,0.1109,0.1114,0.1115,0.1115,0.1115,0,0,0,0,0,0,0,0.0926,0.0932,0.0992,0.0994,0.0998,0.1015,0.1022,0.1027,0.1062,0.1051,0.1055,0.1065,0.109,0.11,0.1102,0.1109,0.1114,0.1115,0.1115,0.1116,0.1182,0.1183,0,0,0,0,0,0,0.0919,0.0929,0.099,0.0994,0.0967,0.1016,0.1024,0.1033,0.1063,0.1069,0.1065,0.1067,0.1099,0.1101,0.1103,0.1155,0.1115,0.1116,0.1116,0.1181,0.1182,0.1184,0,0,0,0,0,0,0.0917,0.0924,0.0987,0.0964,0.0974,0.1017,0.1027,0.1034,0.1065,0.1074,0.1079,0.109,0.1099,0.1102,0.1132,0.1154,0.1116,0.1117,0.1179,0.1181,0.1183,0.1222,0,0,0,0,0,0,0.0914,0.0922,0.0935,0.0964,0.0975,0.1019,0.1027,0.1035,0.107,0.1074,0.1097,0.11,0.11,0.1131,0.1133,0.1154,0.1117,0.1177,0.118,0.1182,0.1219,0.1225,0.123,0,0,0,0,0,0.0911,0.0926,0.0935,0.0944,0.0988,0.102,0.1027,0.1058,0.1071,0.1087,0.111,0.11,0.1148,0.1133,0.1135,0.1157,0.1176,0.1179,0.1182,0.1216,0.1223,0.123,0,0,0,0,0,0,0.0907,0.0932,0.0944,0.0969,0.0997,0.1028,0.1051,0.1069,0.11,0.1109,0.1115,0.1119,0.1155,0.1152,0.1135,0.1185,0.1161,0.1165,0.1187,0.1193,0.1199,0.1196,0.1118,0,0,0,0,0,0.0908,0.0924,0.0952,0.0976,0.099,0.1023,0.1044,0.1064,0.1092,0.1108,0.1126,0.1146,0.1165,0.1177,0.1191,0.1215,0.1218,0.1232,0.1237,0.1242,0.1242,0.1273,0.1281,0.1193,0.1193,0.1193,0,0,0.0917,0.0932,0.0944,0.0976,0.1002,0.1026,0.1037,0.1075,0.1101,0.1104,0.115,0.1166,0.1176,0.1209,0.1224,0.1211,0.1271,0.1246,0.1249,0.1247,0.1277,0.1285,0.1293,0.1195,0.1195,0.1195,0,0,0.0932,0.0952,0.0967,0.0988,0.1026,0.1045,0.1058,0.1098,0.1124,0.1164,0.1177,0.1208,0.1236,0.1251,0.126,0.1304,0.13,0.1312,0.1338,0.1368,0.1375,0.1381,0.1403,0.1411,0.1314,0.1315,0.1315,0,0.0942,0.0962,0.0979,0.0998,0.1021,0.1053,0.1078,0.1107,0.1155,0.1178,0.1185,0.1245,0.1255,0.1292,0.1313,0.1315,0.1331,0.1309,0.1374,0.1381,0.1387,0.1407,0.1415,0.1317,0.1317,0.1316,0.1316,0,0.096,0.0984,0.0998,0.1028,0.1053,0.1083,0.1118,0.1153,0.1186,0.1214,0.1268,0.129,0.1325,0.1336,0.1339,0.1389,0.1387,0.1378,0.1354,0.1398,0.1417,0.1425,0.132,0.1319,0.1319,0.1318,0,0,0.0961,0.1001,0.1009,0.1025,0.1071,0.1092,0.1139,0.1185,0.122,0.1268,0.1312,0.1354,0.1374,0.1386,0.1398,0.1424,0.1483,0.1425,0.1425,0.1441,0.1553,0.1464,0.1463,0.149,0.1492,0.1493,0.1552,0,0.0973,0.1005,0.1026,0.1066,0.1084,0.1125,0.1165,0.1212,0.1255,0.1306,0.1341,0.1387,0.1391,0.1416,0.1446,0.1474,0.1505,0.1467,0.1513,0.1514,0.1425,0.147,0.1498,0.1558,0.1559,0.1561,0.1562,0,0.0978,0.0998,0.1034,0.1079,0.1093,0.1126,0.119,0.123,0.1302,0.1338,0.139,0.142,0.1476,0.1469,0.154,0.152,0.1545,0.1559,0.1562,0.1467,0.1439,0.1505,0.1576,0.1574,0.1573,0.1572,0.1572,0,0.0953,0.1002,0.1028,0.1045,0.1103,0.1135,0.1176,0.1245,0.1282,0.1364,0.14,0.1465,0.1507,0.1548,0.1588,0.1575,0.1656,0.1638,0.1579,0.1573,0.1618,0.1611,0.1689,0.1689,0.1689,0.1689,0.1689,0,0.0941,0.0965,0.1022,0.1035,0.1077,0.1126,0.1181,0.1232,0.1303,0.1346,0.1418,0.1455,0.1533,0.1584,0.1608,0.1617,0.1677,0.159,0.1584,0.1634,0.1628,0.1624,0.1616,0.1691,0.1691,0.169,0.169,0,0.0905,0.0943,0.0974,0.104,0.1064,0.1095,0.1177,0.1212,0.129,0.1348,0.1378,0.1469,0.1538,0.1598,0.1669,0.1635,0.1655,0.1645,0.1702,0.1697,0.1548,0.1541,0.1579,0.1576,0.1574,0.1572,0.1571,0,0.0885,0.0898,0.0967,0.0987,0.1021,0.1077,0.1115,0.1198,0.1232,0.1342,0.1359,0.1457,0.1513,0.1536,0.1607,0.1649,0.1636,0.1628,0.1578,0.1546,0.1538,0.1535,0.1531,0.1567,0.1566,0.1566,0.1565,0,0.0846,0.0879,0.0905,0.0949,0.099,0.1027,0.1087,0.1101,0.1195,0.1274,0.1311,0.1353,0.1429,0.1483,0.153,0.1554,0.1618,0.1605,0.1609,0.1561,0.1532,0.1525,0.1525,0.1557,0.1559,0.1559,0.156,0,0.0818,0.0827,0.0868,0.0898,0.0945,0.0962,0.1002,0.1042,0.1083,0.1197,0.1209,0.1318,0.1409,0.1435,0.1476,0.1496,0.1476,0.1421,0.1434,0.1444,0.1374,0.1316,0.1275,0,0,0,0,0,0.0783,0.0787,0.0813,0.0841,0.0885,0.0913,0.0974,0.1015,0.1102,0.1098,0.1148,0.1213,0.1274,0.133,0.1328,0.1432,0.1489,0.1424,0.1433,0.1515,0.1523,0.1454,0,0,0,0,0,0,0.0757,0.0782,0.079,0.0786,0.0796,0.0836,0.0872,0.0932,0.0932,0.1026,0.1068,0.1141,0.1225,0.1269,0.1306,0.1326,0.1307,0.1493,0.149,0.1509,0.1518,0.1525,0.1457,0,0,0,0,0]},{"header":{"parameterUnit":"m.s-1","parameterCategory":2,"la1":30.2991,"la2":30.254,"lo1":-89.0895,"lo2":-89.0444,"dx":0.0017,"dy":0.0017,"nx":28,"ny":28,"refTime":"2022-12-29T15:00:00:Z","depth":"4","parameterNumber":3,"parameterNumberName":"V-component_of_CURRENTS"},"data":[0,0,0,0,0,0,0,0,0,0,0,0,0,0,0,0,0,0,0,0,0,0,0,0,0,0,0,0,0,0,0,0,0,0,0,0,0,0,0,0,0,0,0,0,0,0,0,0,0,0,0,0,0,0,0,0,0,0,-0.0136,-0.0136,0,-0.0134,-0.0134,-0.0134,-0.0134,-0.0134,-0.0134,-0.0134,-0.0186,-0.0188,-0.0189,0,0,0,0,0,0,0,0,0,0,0,0,0,-0.0124,-0.0124,-0.0136,-0.0136,-0.0136,-0.0134,-0.0134,-0.0134,-0.0134,-0.0134,-0.0134,-0.0134,-0.0186,-0.0187,-0.0189,0,0,0,0,0,0,0,0,0,0,0,0,0,-0.0127,-0.0124,-0.0136,-0.0136,-0.0135,-0.0134,-0.0134,-0.0134,-0.0134,-0.0134,-0.0134,-0.0134,-0.0185,-0.0187,-0.0189,-0.0203,0,0,-0.0196,-0.0197,0,0,0,0,0,0,0,0,-0.0127,-0.0127,-0.0136,-0.0136,-0.0135,-0.0134,-0.0149,-0.016,-0.0134,-0.0135,-0.0134,-0.0134,-0.0174,-0.0177,-0.0176,-0.0205,-0.0207,-0.0196,-0.0197,-0.0198,-0.0199,0,0,0,0,0,0,0,-0.0126,-0.0127,-0.0136,-0.0136,-0.0135,-0.013,-0.013,-0.0151,-0.0156,-0.0135,-0.0135,-0.0134,-0.0174,-0.0174,-0.0177,-0.0208,-0.0196,-0.0198,-0.0199,-0.02,-0.0234,-0.0233,0,0,0,0,0,0,-0.0127,-0.0127,-0.0136,-0.0136,-0.013,-0.013,-0.0131,-0.0135,-0.0154,-0.0157,-0.0134,-0.0134,-0.017,-0.0175,-0.0179,-0.0188,-0.0198,-0.02,-0.0201,-0.0234,-0.0234,-0.0233,0,0,0,0,0,0,-0.0127,-0.0128,-0.0136,-0.0131,-0.0131,-0.0131,-0.0135,-0.0135,-0.0137,-0.0153,-0.0157,-0.0137,-0.0171,-0.0176,-0.0191,-0.019,-0.0201,-0.0203,-0.0235,-0.0234,-0.0234,-0.021,0,0,0,0,0,0,-0.0126,-0.0128,-0.0132,-0.0131,-0.0132,-0.0135,-0.0135,-0.0135,-0.0136,-0.0136,-0.0157,-0.0161,-0.0171,-0.0188,-0.0193,-0.0193,-0.0204,-0.0235,-0.0234,-0.0234,-0.0211,-0.0209,-0.0207,0,0,0,0,0,-0.0126,-0.0125,-0.0133,-0.0134,-0.0138,-0.0135,-0.0135,-0.0134,-0.0137,-0.0137,-0.0145,-0.016,-0.0187,-0.0189,-0.0196,-0.0196,-0.0235,-0.0235,-0.0234,-0.0212,-0.0209,-0.0207,0,0,0,0,0,0,-0.0112,-0.0125,-0.0133,-0.0135,-0.0138,-0.0135,-0.0134,-0.0136,-0.0143,-0.0144,-0.016,-0.0165,-0.0176,-0.0189,-0.0191,-0.0202,-0.0213,-0.0213,-0.0194,-0.0191,-0.0189,-0.0185,-0.0206,0,0,0,0,0,-0.0114,-0.0122,-0.0131,-0.0129,-0.0134,-0.0137,-0.0137,-0.0137,-0.0141,-0.0144,-0.0156,-0.0168,-0.0178,-0.0187,-0.0198,-0.021,-0.0222,-0.0213,-0.021,-0.0208,-0.0208,-0.0224,-0.0224,-0.0231,-0.0231,-0.0231,0,0,-0.0104,-0.0114,-0.0116,-0.0128,-0.013,-0.0129,-0.0137,-0.0135,-0.0131,-0.015,-0.0151,-0.0165,-0.0179,-0.0185,-0.0191,-0.0197,-0.0211,-0.0207,-0.0206,-0.0206,-0.0223,-0.0223,-0.0222,-0.023,-0.023,-0.023,0,0,-0.0084,-0.0102,-0.0103,-0.0109,-0.0118,-0.0121,-0.0123,-0.0127,-0.013,-0.0134,-0.0142,-0.0154,-0.0171,-0.0178,-0.0183,-0.0178,-0.0199,-0.0182,-0.0169,-0.0185,-0.0184,-0.0184,-0.0193,-0.0194,-0.0181,-0.018,-0.018,0,-0.0071,-0.0077,-0.0099,-0.0101,-0.0099,-0.0118,-0.011,-0.0116,-0.0122,-0.0123,-0.0132,-0.0149,-0.0166,-0.0169,-0.0164,-0.0174,-0.0183,-0.0179,-0.0182,-0.0182,-0.0183,-0.0192,-0.0193,-0.0179,-0.0179,-0.0179,-0.018,0,-0.0055,-0.0059,-0.0057,-0.007,-0.0072,-0.0068,-0.0081,-0.0086,-0.0095,-0.01,-0.0109,-0.0129,-0.0138,-0.0146,-0.0155,-0.0162,-0.0167,-0.0178,-0.019,-0.018,-0.0191,-0.0193,-0.0177,-0.0178,-0.0178,-0.0179,0,0,-0.0025,-0.0043,-0.0042,-0.0041,-0.0056,-0.0052,-0.0053,-0.0057,-0.0053,-0.0073,-0.0067,-0.009,-0.0105,-0.0113,-0.0129,-0.0146,-0.0158,-0.0161,-0.0163,-0.0171,-0.0187,-0.0175,-0.0176,-0.0169,-0.0169,-0.0169,-0.0192,0,-0.0004,0.0002,-0.0012,0.0003,0.0004,-0.0013,-0.0007,-0.0014,-0.0027,-0.0031,-0.006,-0.0063,-0.0091,-0.0094,-0.0116,-0.0146,-0.0162,-0.015,-0.0194,-0.0195,-0.0187,-0.0178,-0.017,-0.0193,-0.0193,-0.0194,-0.0194,0,0.0014,0.0014,0.003,0.0034,0.0035,0.0043,0.0045,0.0048,0.0031,0.0021,0.0002,-0.002,-0.0045,-0.007,-0.0123,-0.0114,-0.0148,-0.0175,-0.0177,-0.0176,-0.0187,-0.0206,-0.0198,-0.0197,-0.0197,-0.0197,-0.0197,0,0.0038,0.0045,0.006,0.006,0.0061,0.0069,0.0073,0.0065,0.0073,0.0054,0.0056,0.0016,0.0005,-0.0049,-0.0108,-0.0115,-0.0165,-0.0183,-0.0204,-0.0204,-0.0219,-0.0219,-0.022,-0.022,-0.022,-0.022,-0.022,0,0.0058,0.007,0.0073,0.0079,0.0106,0.0098,0.0122,0.0117,0.0117,0.0133,0.0087,0.0088,0.0009,-0.0029,-0.0092,-0.0149,-0.0154,-0.0199,-0.0208,-0.0207,-0.0206,-0.022,-0.022,-0.0221,-0.022,-0.022,-0.022,0,0.0076,0.0077,0.0094,0.0106,0.0115,0.0133,0.0158,0.0172,0.0168,0.0186,0.0184,0.0145,0.0096,0.0018,-0.0063,-0.0116,-0.0179,-0.0198,-0.0182,-0.019,-0.0212,-0.0211,-0.0226,-0.0226,-0.0226,-0.0226,-0.0226,0,0.0082,0.0093,0.0117,0.0134,0.014,0.0167,0.0188,0.0196,0.0211,0.0223,0.0233,0.0199,0.0163,0.0065,-0.0029,-0.0142,-0.0162,-0.0197,-0.0218,-0.0206,-0.0213,-0.0212,-0.021,-0.0225,-0.0225,-0.0225,-0.0225,0,0.0094,0.0104,0.0118,0.0155,0.0181,0.0213,0.0242,0.0261,0.0275,0.0276,0.0286,0.0235,0.0182,0.0085,0.0002,-0.0084,-0.0178,-0.0195,-0.0197,-0.0217,-0.0205,-0.0212,-0.0211,-0.0224,-0.0224,-0.0224,-0.0225,0,0.0103,0.0117,0.0139,0.0173,0.021,0.0247,0.0262,0.0288,0.0308,0.0321,0.0328,0.0268,0.0234,0.0116,0.0037,-0.0044,-0.0074,-0.0112,-0.0118,-0.012,-0.0089,-0.0058,-0.0037,0,0,0,0,0,0.0107,0.0123,0.0155,0.0191,0.0231,0.0253,0.0292,0.0303,0.0323,0.0341,0.0338,0.0292,0.0189,0.0139,0.0063,0.0018,-0.0105,-0.0077,-0.0154,-0.022,-0.0221,-0.0203,0,0,0,0,0,0,0.0107,0.0134,0.0152,0.0201,0.0231,0.0274,0.0301,0.0317,0.0324,0.0337,0.0285,0.0268,0.0162,0.0238,0.0061,0.0036,-0.0026,-0.0126,-0.0128,-0.022,-0.0221,-0.0221,-0.0203,0,0,0,0,0]}]]